Location: Peebles
(55.6412°N, 3.1714°W)
Time: 10:56:34
(UTC+01:00)

IRIDIUM 33 DEB - Pass Details

Date: 27 June 2022
Orbit: 580 x 634 km, 86.4° (Epoch: 16 August)

Event Time Altitude Azimuth Distance (km) Brightness Sun altitude
Rises 03:14:06 0° 357° (N) 2,823 ? -7.1°
Reaches altitude 10° 03:16:20 10° 1° (N) 1,914 ? -7.0°
Maximum altitude 03:20:28 57° 81° (E) 692 ? -6.7°
Drops below altitude 10° 03:24:35 10° 161° (SSE) 1,900 ? -6.4°
Sets 03:26:47 0° 165° (SSE) 2,799 ? -6.3°
